Regional Weather Roundup
Issued by NWS

Home | Current Version | Previous Version | Text Only | Print | Product List | Glossary Off
Versions: 1 2 3 4 5 6 7 8 9 10 11 12 13 14 15 16 17 18 19 20 21 22 23 24 25 26 27 28 29 30 31 32 33 34 35 36 37 38 39 40 41 42 43 44 45 46 47 48 49 50

535
ASUS43 KFSD 170002
RWRSD

WEATHER ROUNDUP FOR SOUTH DAKOTA
NATIONAL WEATHER SERVICE SIOUX FALLS SD
700 PM CDT MON OCT 16 2017

NOTE: "FAIR" INDICATES FEW OR NO CLOUDS BELOW 12,000 FEET WITH NO
SIGNIFICANT WEATHER AND/OR OBSTRUCTIONS TO VISIBILITY.


SDZ001>005-009-010-012>017-170100-
NORTHWEST AND NORTH CENTRAL SOUTH DAKOTA

CITY           SKY/WX    TMP DP  RH WIND       PRES   REMARKS
BUFFALO          N/A     61  27  27 W12       29.99R
FAITH            N/A     61  30  31 NW9       30.03R
MOBRIDGE       CLEAR     62  40  44 NW5       29.95R
$$

SDZ012>016-024>037-041>051-057-063-072>074-170100-
SOUTHWEST AND SOUTH CENTRAL SOUTH DAKOTA

CITY           SKY/WX    TMP DP  RH WIND       PRES   REMARKS
RAPID CTY ARPT CLEAR     65  28  24 N9        30.07R
PIERRE         CLOUDY    68  38  33 SW3       29.98S
CUSTER         CLEAR     59  20  22 NW6       30.19R
ELLSWORTH AFB  CLEAR     68  28  22 N13       30.06R
PHILIP         CLEAR     64  35  34 NW9       30.02R
PINE RIDGE     CLEAR     64  28  25 N3        30.11R
SPEARFISH      FAIR      63  30  29 W5        30.11S
WINNER         FAIR      70  36  28 N3        30.03S
$$

SDZ004>011-016>023-039-040-170100-
NORTHEAST SOUTH DAKOTA

CITY           SKY/WX    TMP DP  RH WIND       PRES   REMARKS
ABERDEEN       CLEAR     58  42  55 S9        29.94S
WATERTOWN      CLOUDY    54  43  66 SW8       29.97R
BROOKINGS      CLEAR     61  39  44 W6        29.99F
SISSETON         N/A     60  43  53 SW10      29.91F
$$

SDZ017-020-022-023-036>040-048>070-170100-
SOUTHEAST SOUTH DAKOTA

CITY           SKY/WX    TMP DP  RH WIND       PRES   REMARKS
SIOUX FALLS    PTCLDY    68  40  35 SW6       29.99F
HURON          CLOUDY    60  42  51 SW6       29.98F
MITCHELL       CLEAR     66  39  37 W5        30.00S
YANKTON        CLEAR     71  38  29 S5        30.00S
$$

ABBREVIATIONS USED IN REMARKS
   TC - TEMPERATURE IN CELSIUS
  WCI - WIND CHILL INDEX
   HX - HEAT INDEX
  VSB - VISIBILITY





USA.gov is the U.S. government's official web portal to all federal, state and local government web resources and services.